Αρχική σελίδα
METAR-TAF:

METAR-TAF

Αεροδρόμια :

Derby Field

Lovelock, Νεβάδα, Ηνωμένες Πολιτείες Αμερικής

γεωγραφικό πλάτος: 40-03-59N, γεωγραφικό μήκος: 118-33-55W, υψόμετρο: 1190 μ

Παρών καιρός

Η αναφορά έγινε 19 λεπτά πριν, στις 10:53 UTC
Άνεμος 4 kt από Α/BA
Θερμοκρασία 4°C
Υγρασία 41%
Πίεση 1013 hPa
Ορατότητα: 16.1 χλμ
Καθαρός ουρανός

METAR: KLOL 191053Z AUTO 07004KT 10SM CLR 04/M08 A2991 RMK AO2 SLP105 T00391083

Χρόνος: 04:12 (11:12 UTC)


TAF: λείπει

Μετεωρολογικές αναφορές και προγνώσεις για περισσότερα από 4000 αεροδρόμια (δελτία METAR και TAF).

Οι διαθέσιμοι σταθμοί απεικονίζονται στο χάρτη με κίτρινες και κόκκινες κουκκίδες.

Μετακινήστε το ποντίκι πάνω από τις κουκκίδες για να δείτε το όνομα του σταθμού.

Στη συνέχεια, κάντε κλικ για να δείτε τις μετεωρολογικές αναφορές και τις προγνώσεις καιρού.

Για να αλλάξετε το χάρτη: κάντε κλικ στα πράσινα κουμπιά με τον μαύρο σταυρό για να ζουμάρετε, στο πράσινο κουμπί με την παύλα για να αφαιρέσετε το ζουμ ή στα πράσινα βέλη για να αντιπαραβάλλετε χάρτες.


METAR-TAF: